This is the latest recevied weather packets stored in our database for station/object W2JGA. If no packets are shown the sender has not sent any weather packets the latest 10 day(s).
| Time | Temp. | Humidity | Pressure | Rain* | Wind** | Luminosity | Snow |
|---|---|---|---|---|---|---|---|
| 1777941609 | 19.44° C | 52% | 1016.5 hPa | 0.25 mm | - | 13 W/m² | - |
| 1777941306 | 20° C | 52% | 1016.5 hPa | 0.25 mm | - | 17 W/m² | - |
| 1777941002 | 20° C | 53% | 1016.5 hPa | 0 mm | - | 20 W/m² | - |
| 1777940698 | 20.56° C | 51% | 1016.5 hPa | 0 mm | - | 19 W/m² | - |
| 1777940397 | 20.56° C | 48% | 1016.1 hPa | 0 mm | - | 35 W/m² | - |
| 1777940094 | 20.56° C | 49% | 1016.5 hPa | 0 mm | - | 37 W/m² | - |
| 1777939790 | 21.11° C | 48% | 1016.1 hPa | 0 mm | - | 22 W/m² | - |
| 1777939489 | 21.67° C | 46% | 1016.5 hPa | 0 mm | - | 19 W/m² | - |
| 1777939185 | 21.67° C | 45% | 1015.8 hPa | 0 mm | - | 26 W/m² | - |
| 1777938882 | 22.22° C | 44% | 1015.8 hPa | 0 mm | - | 35 W/m² | - |
| 1777938579 | 22.22° C | 39% | 1015.8 hPa | 0 mm | - | 37 W/m² | - |
| 1777938276 | 22.78° C | 39% | 1015.8 hPa | 0 mm | - | 39 W/m² | - |
| 1777937972 | 22.78° C | 38% | 1015.8 hPa | 0 mm | - | 71 W/m² | - |
| 1777937668 | 22.78° C | 39% | 1015.8 hPa | 0 mm | - | 85 W/m² | - |
| 1777937365 | 22.78° C | 39% | 1015.8 hPa | 0 mm | - | 80 W/m² | - |
| 1777937063 | 22.78° C | 38% | 1016.1 hPa | 0 mm | - | 75 W/m² | - |
| 1777936759 | 22.78° C | 37% | 1016.1 hPa | 0 mm | - | 56 W/m² | - |
| 1777936455 | 23.33° C | 37% | 1016.5 hPa | 0 mm | - | 45 W/m² | - |
| 1777936152 | 23.89° C | 36% | 1016.5 hPa | 0 mm | - | 45 W/m² | - |
| 1777935849 | 24.44° C | 32% | 1016.1 hPa | 0 mm | - | 47 W/m² | - |
| 1777935548 | 25° C | 31% | 1016.5 hPa | 0 mm | - | 54 W/m² | - |
| 1777935244 | 25° C | 30% | 1015.8 hPa | 0 mm | - | 61 W/m² | - |
| 1777934942 | 25° C | 31% | 1015.8 hPa | 0 mm | - | 68 W/m² | - |
| 1777934638 | 25° C | 31% | 1015.4 hPa | 0 mm | - | 92 W/m² | - |
| 1777934335 | 25.56° C | 29% | 1015.4 hPa | 0 mm | - | 77 W/m² | - |
* Rain latest hour (hover to see other rain measurements)
** Current wind speed in m/s (hover to see current wind gust speed)